Last 24 Hours

Thomas Mountain

10 Minute Data | America/Los_Angeles
as of 5/2/26 3:32 PM PDT
Date & Time Temp (°F) Dew Pt (°F) RH (%) Wind Spd (mph) Wind Dir (°) Wind Gust (mph) Wind Gst Dir (°) Daily Max Temp (°F) Daily Min Temp (°F)
5/2/26 - 1530 71.3 23.6 17 8.7 WSW | 246 14.8 SSW | 202 73.6 58.9
5/2/26 - 1520 72.5 24.0 16 9.8 SSW | 209 19.5 SW | 217 73.6 58.9
5/2/26 - 1510 72.6 24.2 16 8.7 SSW | 198 19.8 SSW | 200 73.4 58.9
5/2/26 - 1500 71.2 23.6 17 7.2 S | 188 15.0 S | 184 73.2 58.9
5/2/26 - 1450 71.7 23.9 16 10.1 SSW | 196 20.9 SSW | 196 73.2 58.9
5/2/26 - 1440 71.5 24.2 17 11.2 SSW | 208 21.6 SW | 215 73.2 58.9
5/2/26 - 1430 71.4 24.4 17 9.6 SSW | 201 17.0 SSW | 193 73.2 58.9
5/2/26 - 1420 71.9 25.3 17 9.4 S | 188 20.5 SSW | 194 73.2 58.9
5/2/26 - 1410 71.1 25.2 18 7.5 S | 181 18.6 S | 185 73.2 58.9
5/2/26 - 1400 72.0 25.7 18 9.9 S | 173 18.6 S | 174 73.2 58.9
5/2/26 - 1350 71.6 25.2 17 7.2 SSW | 212 18.3 SSW | 194 73.0 58.9
5/2/26 - 1340 71.2 24.8 17 6.4 SSE | 157 20.0 SSE | 166 73.0 58.9
5/2/26 - 1330 71.5 24.9 17 7.1 SSE | 152 16.9 SE | 138 73.0 58.9
5/2/26 - 1320 70.7 24.3 17 7.2 S | 179 18.0 SSW | 204 73.0 58.9
5/2/26 - 1310 71.6 24.8 17 6.8 SE | 146 14.8 SSE | 149 73.0 58.9
5/2/26 - 1300 72.1 25.6 17 6.6 S | 169 15.9 S | 178 73.0 58.9
5/2/26 - 1250 71.8 25.9 18 9.4 S | 184 20.9 SW | 223 72.6 58.9
5/2/26 - 1240 71.7 26.0 18 7.3 SSE | 166 16.1 S | 188 72.6 58.9
5/2/26 - 1230 70.4 24.6 18 5.2 SSE | 147 14.8 ESE | 113 72.6 58.9
5/2/26 - 1220 71.1 25.3 18 6.4 SE | 146 17.6 S | 171 72.6 58.9
5/2/26 - 1210 70.6 22.2 16 6.8 E | 96 14.0 E | 99 72.6 58.9
5/2/26 - 1200 71.9 24.7 17 4.0 SE | 146 8.8 ESE | 102 72.6 58.9
5/2/26 - 1150 70.4 23.1 17 6.4 ESE | 113 13.7 E | 98 71.7 58.9
5/2/26 - 1140 70.1 22.1 16 7.0 E | 94 13.7 ESE | 106 71.1 58.9
5/2/26 - 1130 69.2 21.5 16 7.3 ESE | 106 19.1 ENE | 72 70.7 58.9
5/2/26 - 1120 69.8 22.3 16 5.5 NE | 49 20.0 E | 96 70.7 58.9
5/2/26 - 1110 68.8 21.7 17 6.8 E | 87 15.4 ENE | 71 70.5 58.9
5/2/26 - 1100 69.0 22.6 17 6.4 ESE | 117 16.3 E | 101 70.5 58.9
5/2/26 - 1050 69.4 23.4 18 6.4 ESE | 105 15.7 ESE | 110 70.4 58.9
5/2/26 - 1040 68.2 22.7 18 8.2 ENE | 71 18.3 E | 84 69.8 58.9
5/2/26 - 1030 68.9 23.5 18 10.7 ENE | 69 19.3 E | 84 69.8 58.9
5/2/26 - 1020 68.6 24.2 19 7.0 ESE | 106 18.0 E | 90 69.8 58.9
5/2/26 - 1010 67.9 23.9 19 8.9 ESE | 110 15.6 ESE | 110 69.8 58.9
5/2/26 - 1000 68.3 24.5 19 8.6 ESE | 108 15.6 E | 83 69.8 58.9
5/2/26 - 0950 68.0 24.2 19 10.5 E | 86 18.0 E | 92 69.8 58.9
5/2/26 - 0940 68.4 24.6 19 8.4 E | 92 19.2 ENE | 75 69.8 58.9
5/2/26 - 0930 67.6 24.1 19 10.2 E | 84 17.3 ESE | 113 68.5 58.9
5/2/26 - 0920 67.7 24.2 19 7.7 E | 83 15.9 E | 99 68.5 58.9
5/2/26 - 0910 67.1 24.1 20 8.1 ESE | 102 14.8 ENE | 78 67.8 58.9
5/2/26 - 0900 66.5 24.0 20 10.3 ENE | 76 16.4 ENE | 74 67.0 58.9
5/2/26 - 0850 66.1 23.4 20 12.0 ENE | 78 18.1 ENE | 77 67.0 58.9
5/2/26 - 0840 66.3 25.0 21 9.0 E | 82 14.5 E | 80 67.0 58.9
5/2/26 - 0830 65.1 25.6 22 8.0 ENE | 72 16.0 ENE | 58 65.8 58.9
5/2/26 - 0820 64.4 25.4 23 8.1 ENE | 71 12.1 ENE | 76 64.6 58.9
5/2/26 - 0810 64.3 25.4 23 8.0 ENE | 66 12.0 NE | 40 64.6 58.9
5/2/26 - 0800 64.1 26.1 24 6.5 ENE | 68 9.8 E | 87 64.6 58.9
5/2/26 - 0750 63.8 26.2 24 7.0 ENE | 67 11.5 ENE | 77 64.1 58.9
5/2/26 - 0740 63.4 26.3 24 6.8 ENE | 58 11.2 ENE | 60 63.5 58.9
5/2/26 - 0730 63.2 26.4 25 7.4 ENE | 66 11.8 E | 86 63.5 58.9
5/2/26 - 0720 62.8 27.0 26 7.4 ENE | 59 10.8 NE | 53 63.2 58.9
5/2/26 - 0710 62.3 26.6 26 6.7 NE | 55 9.0 ENE | 59 62.7 58.9
5/2/26 - 0700 62.0 26.2 25 7.0 NE | 51 9.6 NE | 42 62.7 58.9
5/2/26 - 0650 61.9 25.9 25 7.5 NE | 44 10.6 NE | 43 62.7 58.9
5/2/26 - 0640 61.3 26.2 26 6.8 NE | 36 8.8 NNE | 28 62.7 58.9
5/2/26 - 0630 59.9 28.0 29 6.5 NE | 51 8.6 NNE | 29 62.7 58.9
5/2/26 - 0620 60.2 28.4 30 7.0 NE | 49 8.4 NE | 52 62.7 58.9
5/2/26 - 0610 60.0 28.3 30 6.9 NE | 55 8.3 NE | 55 62.7 58.9
5/2/26 - 0600 59.5 28.4 30 6.2 ENE | 58 8.8 E | 82 62.7 58.9
5/2/26 - 0550 59.7 28.7 31 6.4 E | 81 8.6 E | 87 62.7 58.9
5/2/26 - 0540 60.4 28.6 30 5.5 ENE | 69 7.7 E | 83 62.7 58.9
5/2/26 - 0530 60.8 28.5 29 6.1 ENE | 63 7.1 ENE | 73 62.7 58.9
5/2/26 - 0520 61.0 27.6 28 5.4 ENE | 59 7.1 ENE | 68 62.7 58.9
5/2/26 - 0510 61.1 27.3 27 5.7 ENE | 69 7.2 ENE | 67 62.7 58.9
5/2/26 - 0500 61.5 27.0 27 6.3 ENE | 62 9.0 ENE | 63 62.7 58.9
5/2/26 - 0450 61.9 26.8 26 6.5 NE | 47 8.6 NE | 55 62.7 58.9
5/2/26 - 0440 61.5 27.0 27 6.7 NE | 49 8.8 NE | 50 62.7 58.9
5/2/26 - 0430 61.6 27.4 27 7.3 NE | 49 10.3 NE | 51 62.7 58.9
5/2/26 - 0420 61.8 27.3 27 7.4 NE | 42 10.5 NE | 40 62.7 58.9
5/2/26 - 0410 61.6 27.9 28 8.6 NE | 42 12.1 NE | 39 62.7 58.9
5/2/26 - 0400 61.8 28.3 28 9.2 NE | 44 12.4 NE | 43 62.7 58.9
5/2/26 - 0350 61.6 29.0 29 7.8 NE | 42 11.2 NNE | 33 62.7 58.9
5/2/26 - 0340 61.5 29.8 30 9.2 NE | 44 12.0 NE | 47 62.7 58.9
5/2/26 - 0330 61.6 30.4 31 9.4 NE | 46 12.2 NE | 53 62.7 58.9
5/2/26 - 0320 61.8 30.5 31 9.1 NE | 46 11.1 NE | 42 62.7 58.9
5/2/26 - 0310 62.0 29.6 29 9.6 NE | 44 12.1 NE | 56 62.7 58.9
5/2/26 - 0300 62.0 28.7 28 9.0 NE | 38 11.2 NE | 39 62.7 58.9
5/2/26 - 0250 60.7 29.3 30 8.4 NNE | 32 9.9 NE | 34 62.7 58.9
5/2/26 - 0240 60.2 30.0 32 7.8 NNE | 25 10.3 NNE | 15 62.7 58.9
5/2/26 - 0230 61.8 28.7 28 7.3 NNE | 29 10.1 NNE | 27 62.7 58.9
5/2/26 - 0220 61.6 29.5 29 7.1 NNE | 18 8.7 NNE | 18 61.8 58.9
5/2/26 - 0210 61.0 30.4 31 7.5 N | 7 9.6 N | 5 61.3 58.9
5/2/26 - 0200 60.4 29.7 31 7.7 N | 11 9.9 NNE | 15 61.2 58.9
5/2/26 - 0150 60.7 29.8 31 6.8 NNE | 16 9.8 N | 5 61.2 58.9
5/2/26 - 0140 60.4 29.0 30 8.7 N | 3 10.8 NNE | 13 60.9 58.9
5/2/26 - 0130 59.5 27.3 29 9.1 N | 11 11.3 NNE | 13 60.0 58.9
5/2/26 - 0120 59.1 28.4 31 8.2 NNE | 23 11.3 NNE | 28 59.5 58.9
5/2/26 - 0110 59.3 28.7 31 7.3 NNE | 22 9.4 NNE | 27 59.5 59.0
5/2/26 - 0100 58.6 29.5 33 6.8 NNE | 15 8.4 NNE | 28 73.2 52.4
5/2/26 - 0050 57.7 31.8 37 6.7 NNE | 17 8.8 NNE | 21 73.2 52.4
5/2/26 - 0040 58.2 32.1 37 6.7 NE | 34 9.5 NNE | 25 73.2 52.4
5/2/26 - 0030 58.6 29.7 33 3.7 NE | 42 5.0 NE | 48 73.2 52.4
5/2/26 - 0020 58.4 30.4 34 4.3 NE | 39 5.3 NE | 35 73.2 52.4
5/2/26 - 0010 59.0 28.6 31 4.8 NE | 36 6.5 NNE | 27 73.2 52.4
5/2/26 - 0000 59.2 27.6 30 5.4 NNE | 25 7.2 NNE | 29 73.2 52.4
5/1/26 - 2350 59.0 27.3 30 6.0 NNE | 30 8.0 NNE | 32 73.2 52.4
5/1/26 - 2340 59.0 28.4 31 6.6 NNE | 21 9.1 NNE | 14 73.2 52.4
5/1/26 - 2330 58.2 33.5 39 6.9 NNE | 19 9.2 NNE | 24 73.2 52.4
5/1/26 - 2320 58.0 34.7 41 7.2 NNE | 25 9.3 NNE | 23 73.2 52.4
5/1/26 - 2310 57.2 39.4 52 7.7 NNE | 17 10.3 NNE | 19 73.2 52.4
5/1/26 - 2300 57.2 41.9 57 8.1 NNE | 24 10.3 NNE | 13 73.2 52.4
5/1/26 - 2250 57.0 42.5 58 7.9 NNE | 21 10.7 NNE | 17 73.2 52.4
5/1/26 - 2240 56.8 43.1 60 8.7 NNE | 15 11.4 NNE | 20 73.2 52.4
5/1/26 - 2230 56.6 43.5 61 8.9 NNE | 23 11.6 NNE | 26 73.2 52.4
5/1/26 - 2220 56.7 43.3 61 8.1 NNE | 24 11.2 NNE | 22 73.2 52.4
5/1/26 - 2210 56.9 43.8 61 8.7 NNE | 19 11.9 NNE | 17 73.2 52.4
5/1/26 - 2200 56.8 43.3 60 8.6 NNE | 21 12.1 NNE | 19 73.2 52.4
5/1/26 - 2150 57.3 42.3 57 8.8 NNE | 22 12.1 NNE | 23 73.2 52.4
5/1/26 - 2140 58.2 36.0 43 7.2 NNE | 15 10.2 N | 10 73.2 52.4
5/1/26 - 2130 58.3 38.4 47 8.9 NNE | 14 11.7 NNE | 26 73.2 52.4
5/1/26 - 2120 58.4 40.6 52 9.2 NNE | 12 12.3 N | 9 73.2 52.4
5/1/26 - 2110 58.1 41.7 54 10.0 N | 6 13.5 N | 3 73.2 52.4
5/1/26 - 2100 58.1 41.8 54 9.8 NNE | 17 13.1 NNE | 20 73.2 52.4
5/1/26 - 2050 58.6 40.4 51 9.6 NNE | 17 12.7 NNE | 18 73.2 52.4
5/1/26 - 2040 58.7 39.0 48 7.8 N | 9 10.4 N | 6 73.2 52.4
5/1/26 - 2030 58.8 37.2 44 6.7 NNE | 14 9.1 N | 11 73.2 52.4
5/1/26 - 2020 60.4 32.2 34 3.1 NE | 52 8.5 NE | 35 73.2 52.4
5/1/26 - 2010 61.8 30.5 31 2.2 ENE | 63 4.4 ENE | 70 73.2 52.4
5/1/26 - 2000 62.4 29.6 29 3.3 N | 352 6.7 NW | 307 73.2 52.4
5/1/26 - 1950 62.6 28.6 27 5.5 NNW | 340 9.4 NNE | 15 73.2 52.4
5/1/26 - 1940 62.4 30.2 29 4.6 N | 3 8.0 NNW | 342 73.2 52.4
5/1/26 - 1930 63.1 31.1 30 6.9 N | 356 14.8 NNW | 348 73.2 52.4
5/1/26 - 1920 63.1 40.5 44 1.6 NE | 49 6.4 NE | 53 73.2 52.4
5/1/26 - 1910 63.1 42.1 46 2.0 NW | 326 4.1 N | 0 73.2 52.4
5/1/26 - 1900 63.7 43.5 48 1.9 N | 360 4.5 NNE | 22 73.2 52.4
5/1/26 - 1850 64.3 45.1 50 3.4 NNW | 335 9.9 WSW | 250 73.2 52.4
5/1/26 - 1840 64.6 46.8 52 7.9 WNW | 291 15.0 W | 263 73.2 52.4
5/1/26 - 1830 65.1 47.2 52 8.8 W | 276 18.8 W | 279 73.2 52.4
5/1/26 - 1820 66.0 47.1 50 6.9 W | 278 15.7 W | 260 73.2 52.4
5/1/26 - 1810 66.6 45.8 47 6.7 WNW | 288 17.3 W | 260 73.2 52.4
5/1/26 - 1800 67.0 44.7 44 7.7 NW | 308 17.9 NW | 311 73.2 52.4
5/1/26 - 1750 67.1 44.2 43 9.2 WNW | 290 17.5 W | 280 73.2 52.4
5/1/26 - 1740 67.5 44.6 44 9.5 W | 273 20.4 WSW | 241 73.2 52.4
5/1/26 - 1730 67.6 43.8 42 8.1 WNW | 289 18.6 WNW | 286 73.2 52.4
5/1/26 - 1720 67.8 42.6 40 10.4 WNW | 286 19.2 W | 276 73.2 52.4
5/1/26 - 1710 67.9 42.7 40 10.2 W | 267 21.0 WSW | 242 73.2 52.4
5/1/26 - 1700 68.8 42.7 39 8.0 WNW | 289 15.4 WNW | 294 73.2 52.4
5/1/26 - 1650 68.8 42.0 38 8.8 W | 265 16.4 WSW | 246 73.2 52.4
5/1/26 - 1640 68.5 39.9 35 10.6 W | 279 18.6 W | 276 73.2 52.4
5/1/26 - 1630 68.5 39.4 34 12.5 W | 275 22.9 W | 270 73.2 52.4
5/1/26 - 1620 68.6 37.2 32 10.7 W | 279 20.8 W | 281 73.2 52.4
5/1/26 - 1610 68.5 35.1 29 13.2 W | 263 23.7 WSW | 238 73.2 52.4
5/1/26 - 1600 68.9 35.6 29 14.5 WSW | 256 25.6 W | 270 73.2 52.4
5/1/26 - 1550 68.8 35.7 29 14.0 WSW | 255 22.7 WSW | 248 73.2 52.4
5/1/26 - 1540 68.9 36.5 30 16.4 WSW | 248 25.5 SW | 236 73.2 52.4
5/1/26 - 1530 69.1 35.9 29 16.2 WSW | 243 25.7 W | 259 73.2 52.4
Max 72.6 47.2 61 16.4 - 25.7 - 73.6 59.0
Avg 64.2 30.9 31 7.8 - 13.3 - - -
Min 56.6 21.5 16 1.6 - 4.1 - 59.5 52.4